Total_Precipitation_Accumulation
0.00 0.03 0.16 0.13 0.12 0.09 0.09 0.10 0.11 0.10 0.10 0.13 0.09 0.06 0.07 0.13 0.15 0.16 0.07 0.07 0.15 0.16 0.20 0.17 0.16 0.19 0.33 0.38 0.32 0.05 0.02 0.01 0.01 0.00 0.01 0.03 0.06 0.06 0.05 0.06 0.08 0.09 0.11
0.00 0.02 0.10 0.14 0.14 0.10 0.15 0.13 0.09 0.07 0.13 0.16 0.14 0.11 0.12 0.24 0.20 0.11 0.05 0.07 0.12 0.13 0.13 0.19 0.23 0.32 0.30 0.13 0.06 0.02 0.00 0.00 0.00 0.00 0.00 0.02 0.04 0.04 0.02 0.04 0.07 0.08 0.10
0.00 0.03 0.04 0.15 0.13 0.12 0.10 0.06 0.04 0.07 0.09 0.10 0.12 0.18 0.28 0.26 0.11 0.05 0.04 0.09 0.10 0.14 0.18 0.23 0.23 0.14 0.03 0.01 0.00 0.00 0.00 0.00 0.00 0.00 0.00 0.01 0.03 0.09 0.07 0.04 0.09 0.10 0.10
0.00 0.02 0.04 0.15 0.13 0.12 0.06 0.02 0.06 0.08 0.06 0.08 0.17 0.29 0.32 0.18 0.06 0.05 0.05 0.08 0.09 0.08 0.09 0.05 0.02 0.01 0.00 0.00 0.00 0.00 0.00 0.00 0.00 0.00 0.00 0.00 0.02 0.10 0.10 0.10 0.14 0.12 0.11
0.02 0.02 0.05 0.14 0.15 0.11 0.02 0.03 0.05 0.06 0.06 0.08 0.20 0.44 0.45 0.16 0.07 0.06 0.05 0.06 0.04 0.02 0.02 0.01 0.01 0.00 0.00 0.00 0.00 0.00 0.01 0.00 0.00 0.00 0.00 0.00 0.02 0.09 0.11 0.12 0.14 0.17 0.16
0.03 0.04 0.09 0.18 0.20 0.07 0.01 0.02 0.06 0.06 0.06 0.07 0.23 0.41 0.42 0.13 0.11 0.11 0.06 0.03 0.01 0.02 0.02 0.01 0.00 0.00 0.00 0.00 0.00 0.00 0.01 0.01 0.00 0.00 0.00 0.01 0.04 0.13 0.09 0.10 0.14 0.23 0.23
0.05 0.08 0.10 0.28 0.18 0.04 0.01 0.03 0.10 0.08 0.08 0.09 0.23 0.37 0.33 0.12 0.09 0.13 0.08 0.03 0.01 0.02 0.02 0.00 0.00 0.00 0.00 0.00 0.00 0.00 0.00 0.01 0.00 0.00 0.00 0.00 0.02 0.03 0.02 0.04 0.05 0.08 0.12
0.04 0.12 0.18 0.31 0.18 0.05 0.02 0.03 0.07 0.08 0.10 0.17 0.30 0.41 0.29 0.12 0.06 0.09 0.09 0.02 0.01 0.02 0.01 0.01 0.00 0.00 0.00 0.00 0.00 0.00 0.00 0.00 0.00 0.00 0.00 0.00 0.01 0.02 0.02 0.03 0.04 0.04 0.06
0.13 0.17 0.24 0.24 0.18 0.08 0.03 0.02 0.05 0.08 0.14 0.25 0.32 0.32 0.16 0.09 0.07 0.08 0.06 0.02 0.02 0.03 0.02 0.01 0.01 0.01 0.00 0.00 0.00 0.00 0.00 0.00 0.00 0.00 0.00 0.00 0.02 0.05 0.05 0.07 0.07 0.08 0.10
0.69 0.47 0.35 0.31 0.13 0.04 0.04 0.03 0.02 0.06 0.10 0.19 0.21 0.11 0.02 0.02 0.02 0.03 0.01 0.02 0.03 0.03 0.02 0.02 0.02 0.02 0.01 0.01 0.01 0.01 0.00 0.00 0.00 0.00 0.00 0.00 0.05 0.08 0.08 0.09 0.08 0.09 0.11
1.39 1.14 0.76 0.45 0.16 0.05 0.06 0.06 0.02 0.05 0.09 0.14 0.13 0.08 0.01 0.00 0.00 0.01 0.00 0.02 0.03 0.03 0.02 0.03 0.02 0.02 0.01 0.00 0.00 0.00 0.00 0.00 0.00 0.00 0.00 0.01 0.03 0.04 0.05 0.05 0.05 0.08 0.08
1.73 1.30 1.30 0.91 0.32 0.06 0.09 0.06 0.02 0.03 0.08 0.07 0.07 0.06 0.01 0.00 0.00 0.00 0.00 0.02 0.02 0.02 0.03 0.01 0.01 0.01 0.00 0.00 0.00 0.00 0.00 0.00 0.00 0.00 0.00 0.01 0.02 0.02 0.02 0.04 0.05 0.04 0.04
2.61 1.58 1.42 1.10 0.77 0.28 0.19 0.13 0.02 0.02 0.05 0.06 0.08 0.06 0.03 0.01 0.00 0.00 0.00 0.01 0.00 0.00 0.01 0.00 0.00 0.00 0.00 0.00 0.00 0.00 0.00 0.00 0.00 0.00 0.00 0.01 0.00 0.01 0.02 0.02 0.03 0.02 0.02
3.11 2.18 1.51 1.15 0.86 0.62 0.50 0.28 0.03 0.03 0.03 0.08 0.07 0.08 0.03 0.01 0.00 0.00 0.00 0.00 0.00 0.00 0.00 0.00 0.00 0.00 0.00 0.00 0.00 0.00 0.00 0.00 0.00 0.00 0.00 0.00 0.00 0.00 0.01 0.01 0.02 0.03 0.04
1.45 1.66 1.79 1.29 1.00 0.80 0.70 0.57 0.14 0.03 0.03 0.07 0.08 0.10 0.06 0.02 0.00 0.00 0.00 0.00 0.00 0.00 0.00 0.00 0.00 0.00 0.00 0.00 0.00 0.00 0.00 0.00 0.00 0.00 0.00 0.00 0.00 0.00 0.00 0.00 0.01 0.01 0.05
0.93 1.30 1.77 1.53 1.07 1.30 1.06 0.80 0.59 0.15 0.02 0.05 0.13 0.06 0.13 0.07 0.01 0.00 0.00 0.00 0.00 0.00 0.00 0.00 0.00 0.00 0.00 0.00 0.00 0.00 0.00 0.00 0.00 0.00 0.00 0.00 0.00 0.00 0.00 0.00 0.01 0.03 0.06
0.53 1.41 1.87 1.46 0.96 0.81 1.41 1.25 0.67 0.53 0.19 0.04 0.06 0.16 0.05 0.19 0.09 0.00 0.00 0.00 0.00 0.00 0.00 0.00 0.00 0.00 0.00 0.00 0.00 0.00 0.00 0.00 0.00 0.00 0.00 0.00 0.00 0.00 0.00 0.01 0.02 0.05 0.07
0.58 0.95 1.57 1.41 0.78 0.62 0.86 1.43 1.15 0.70 0.37 0.15 0.07 0.12 0.10 0.07 0.16 0.06 0.01 0.00 0.00 0.00 0.00 0.00 0.00 0.00 0.00 0.00 0.00 0.00 0.00 0.00 0.00 0.00 0.00 0.00 0.00 0.00 0.00 0.00 0.01 0.02 0.08
0.47 0.63 0.79 0.77 0.41 0.20 0.36 0.96 1.40 0.93 0.46 0.23 0.13 0.04 0.08 0.09 0.07 0.05 0.01 0.01 0.00 0.00 0.00 0.00 0.00 0.00 0.00 0.00 0.01 0.00 0.00 0.00 0.00 0.00 0.00 0.01 0.01 0.01 0.00 0.01 0.01 0.01 0.02
0.84 0.66 0.67 0.50 0.50 0.32 0.55 0.88 1.21 1.07 0.71 0.34 0.24 0.14 0.11 0.10 0.14 0.13 0.08 0.04 0.01 0.00 0.00 0.00 0.01 0.02 0.02 0.03 0.03 0.01 0.00 0.00 0.00 0.00 0.00 0.00 0.02 0.02 0.01 0.01 0.00 0.00 0.00
1.62 0.98 0.83 0.66 0.53 0.52 0.44 0.56 0.82 0.60 0.94 0.65 0.45 0.40 0.31 0.38 0.36 0.34 0.31 0.19 0.13 0.06 0.05 0.06 0.07 0.05 0.05 0.15 0.14 0.03 0.01 0.00 0.00 0.00 0.00 0.00 0.00 0.01 0.00 0.00 0.00 0.00 0.00
1.04 1.07 1.06 0.56 0.42 0.44 0.42 0.47 1.00 1.03 1.04 0.93 0.87 0.76 0.57 0.62 0.59 0.37 0.41 0.47 0.36 0.22 0.14 0.11 0.21 0.38 0.37 0.49 0.40 0.22 0.08 0.05 0.05 0.02 0.01 0.00 0.00 0.00 0.00 0.00 0.00 0.00 0.00
0.98 0.79 0.84 1.09 0.95 0.84 1.06 1.45 1.47 1.63 1.62 1.57 1.44 1.11 1.16 1.34 1.42 1.14 1.03 0.93 0.96 1.03 0.91 0.89 0.79 0.88 0.79 0.78 0.63 0.61 0.35 0.13 0.04 0.02 0.01 0.00 0.00 0.00 0.00 0.01 0.01 0.01 0.01
1.36 1.37 1.39 1.53 1.34 1.04 1.27 1.45 1.14 1.43 1.59 1.63 1.46 1.60 1.84 1.90 1.97 1.85 1.81 2.17 1.99 1.68 1.57 1.55 1.37 1.03 0.73 0.62 0.54 0.44 0.37 0.22 0.16 0.08 0.01 0.01 0.01 0.01 0.01 0.01 0.02 0.01 0.01
1.67 1.56 1.62 1.79 1.43 1.17 1.29 1.33 1.49 1.32 1.31 1.26 1.05 1.10 1.17 1.21 1.07 1.08 1.10 1.23 1.43 1.30 1.25 1.15 1.04 0.83 0.68 0.53 0.45 0.37 0.31 0.21 0.12 0.11 0.07 0.06 0.05 0.04 0.02 0.01 0.01 0.01 0.01
1.60 1.12 1.30 1.40 1.18 1.01 1.10 0.99 1.30 1.12 1.21 1.16 0.97 0.83 0.79 0.79 0.87 0.69 0.59 0.54 0.51 0.48 0.54 0.56 0.55 0.47 0.37 0.34 0.25 0.22 0.23 0.23 0.17 0.16 0.14 0.11 0.08 0.05 0.03 0.02 0.03 0.03 0.04